Notices

What's New in latest Release from April 7th, 2021:

- Updated Glossary, including Speed of Maximum Gust, and Total Hourly Precipitation

- Updated national and regional climate services offices contacts and prices information

- Addition of station inventory lists for 1981-2010, 1971-2000, and 1961-1990 Normals.

If you haven't already, please take our survey and provide feedback about our website: https://eccc.sondage-survey.ca/f/LanguageSelection.aspx?s=442ca660-fcf1-47c0-95a9-59707d6fd709

Hourly Data Report for December 16, 2019

CARBERRY CS
MANITOBA
Current Station Operator: ECCC - MSC

49°54'20.900" N
99°21'26.800" W
383.50 m
5010547
71170
WZE

Download Data

Hourly Data (December 2019)
Hourly Data Report for December 16, 2019
TIME
LST
Temp Definition
°C
Dew Point Definition
°C
Rel Hum Definition
%
Precip. Amount Definition
mm

Wind Dir Definition
10's deg

Wind Spd Definition
km/h
Visibility Definition
km
Stn Press Definition
kPa
Hmdx Definition


Wind Chill Definition


Weather Definition


00:00 -19.9 -23.0 77 0.0 27 15   96.84   -29 LegendNANA
01:00 -21.0 -24.2 76 0.0 29 11   96.88   -29 LegendNANA
02:00 -21.0 -23.8 78 0.0 25 5   96.91   -25 LegendNANA
03:00 -20.4 -23.0 80 0.0 25 17   96.94   -30 LegendNANA
04:00 -20.5 -22.7 82 0.0 26 21   96.99   -31 LegendNANA
05:00 -20.5 -22.7 82 0.0 22 10   96.96   -28 LegendNANA
06:00 -22.0 -24.2 82 0.0 21 11   96.91   -30 LegendNANA
07:00 -22.3 -24.8 81 0.0 20 9   96.94   -29 LegendNANA
08:00 -21.6 -24.0 81 0.0 18 9   96.98   -29 LegendNANA
09:00 -21.2 -23.7 80 0.0 19 9   96.94   -28 LegendNANA
10:00 -19.3 -21.7 81 0.0 18 10   96.88   -26 LegendNANA
11:00 -15.0 -17.0 85 0.0 19 8   96.87   -20 LegendNANA
12:00 -10.6 -12.7 85 0.0 21 10   96.75   -16 LegendNANA
13:00 -7.5 -10.4 80 0.0 23 17   96.65   -14 LegendNANA
14:00 -6.7 -9.7 79 0.0 25 28   96.66   -15 LegendNANA
15:00 -6.1 -9.5 77 0.0 27 26   96.74   -14 LegendNANA
16:00 -5.5 -9.5 73 0.0 28 21   96.79   -12 LegendNANA
17:00 -5.5 -9.3 75 0.0 26 15   96.80   -11 LegendNANA
18:00 -5.7 -10.2 70 0.0 27 29   96.82   -14 LegendNANA
19:00 -6.7 -10.8 73 0.0 27 22   96.89   -14 LegendNANA
20:00 -7.4 -11.0 75 0.0 27 17   96.91   -14 LegendNANA
21:00 -7.3 -10.9 75 0.0 30 17   96.92   -14 LegendNANA
22:00 -9.0 -13.7 69 0.0 32 20   97.00   -17 LegendNANA
23:00 -14.3 -16.6 83 0.0 2 10   97.11   -20 LegendNANA

Notes on Data Quality.

Legend

  • E = Estimated
  • M = Missing
  • NA = Not Available*
  • [empty] = Indicates an unobserved value
Date modified: